Weather History for KNUQ - February, 2007

Change the Weather History Date:

Monday, February 12, 2007

  Actual Average Record
Temperature  
Mean Temperature 51 °F 53 °F  
Max Temperature 59 °F 62 °F 73 °F (1988)
Min Temperature 43 °F 45 °F 30 °F (1949)
Degree Days  
Heating Degree Days 14    
Month to date heating degree days  
Since 1 July heating degree days  
Cooling Degree Days 0    
Month to date cooling degree days  
Year to date cooling degree days  
Growing Degree Days 1 (Base 50)    
Moisture  
Dew Point 43 °F    
Average Humidity 81    
Maximum Humidity 93    
Minimum Humidity 51    
Precipitation  
Precipitation 0.30 in 0.11 in 1.17 in (1992)
Month to date precipitation 1.25  
Year to date precipitation 4.00  
Sea Level Pressure  
Sea Level Pressure 30.10 in    
Wind  
Wind Speed 3 mph (SSE)    
Max Wind Speed 9 mph    
Max Gust Speed -    
Visibility 8 miles    
Events Rain    
T = Trace of Precipitation, MM = Missing Value Source: NWS Daily Summary

Daily Weather History Graph

Daily Weather History Graph

Search for Another Location

Airport or City:

Trip Planner

Search our weather history database for the weather conditions in past years. The results will help you decide how hot, cold, wet, or windy it might be!

Date:

Astronomy

Feb. 12, 2007 Rise Set
Actual Time 7:00 AM PST 5:44 PM PST
Civil Twilight 6:34 AM PST 6:11 PM PST
Nautical Twilight 6:03 AM PST 6:42 PM PST
Astronomical Twilight 5:33 AM PST 7:12 PM PST
Moon 3:16 AM PST (2/12) 12:21 PM PST (2/12)
Length of Visible Light 11h 37m
Length of Day
10h 43m
Waning Crescent, 27% of the Moon is Illuminated
Feb 12
Waning Crescent
Feb 17
New
Feb 23
First Quarter
Mar 3
Full
Mar 11
Last Quarter

Hourly Weather History & Observations

Time (PST) Temp. Windchill Dew Point Humidity Pressure Visibility Wind Dir Wind Speed Gust Speed Precip Events Conditions
12:56 AM 46.9 °F - 41.0 °F 80% 30.11 in 10.0 mi Calm Calm - N/A   Clear
1:56 AM 44.1 °F - 39.9 °F 85% 30.11 in 10.0 mi Calm Calm - N/A   Clear
2:56 AM 44.1 °F - 39.9 °F 85% 30.11 in 10.0 mi Calm Calm - N/A   Clear
3:56 AM 43.0 °F 39.5 °F 39.9 °F 89% 30.11 in 10.0 mi SE 5.8 mph - N/A   Clear
4:56 AM 43.0 °F 39.5 °F 39.0 °F 86% 30.11 in 10.0 mi SE 5.8 mph - N/A   Clear
5:56 AM 43.0 °F 40.3 °F 39.0 °F 86% 30.11 in 10.0 mi SE 4.6 mph - N/A   Clear
6:56 AM 45.0 °F 41.8 °F 39.9 °F 82% 30.12 in 10.0 mi SE 5.8 mph - N/A   Clear
7:56 AM 46.0 °F 43.1 °F 41.0 °F 83% 30.13 in 10.0 mi SSE 5.8 mph - N/A   Clear
8:56 AM 50.0 °F - 44.1 °F 80% 30.13 in 10.0 mi SE 8.1 mph - N/A   Scattered Clouds
9:56 AM 53.1 °F - 43.0 °F 69% 30.13 in 10.0 mi SSE 9.2 mph - N/A   Mostly Cloudy
10:56 AM 57.0 °F - 44.1 °F 62% 30.12 in 10.0 mi SE 9.2 mph - N/A   Scattered Clouds
11:56 AM 59.0 °F - 42.1 °F 53% 30.11 in 10.0 mi SSE 6.9 mph - N/A   Mostly Cloudy
12:56 PM 59.0 °F - 41.0 °F 51% 30.09 in 10.0 mi SE 4.6 mph - N/A   Mostly Cloudy
1:56 PM 59.0 °F - 42.1 °F 53% 30.07 in 10.0 mi SSW 8.1 mph - N/A   Mostly Cloudy
2:56 PM 57.9 °F - 45.0 °F 62% 30.07 in 10.0 mi SSW 3.5 mph - 0.00 in Rain Light Rain
3:56 PM 57.9 °F - 44.1 °F 60% 30.06 in 10.0 mi South 8.1 mph - 0.00 in   Mostly Cloudy
4:56 PM 54.0 °F - 46.0 °F 75% 30.07 in 5.0 mi Variable 4.6 mph - 0.03 in Rain Rain
5:56 PM 51.1 °F - 46.9 °F 86% 30.09 in 3.0 mi Variable 3.5 mph - 0.15 in Rain Rain
6:07 PM 50.0 °F - 46.4 °F 87% 30.08 in 3.0 mi WNW 4.6 mph - 0.09 in Rain Rain
6:56 PM 50.0 °F - 46.9 °F 89% 30.09 in 3.0 mi Calm Calm - 0.11 in Rain Light Rain
7:56 PM 50.0 °F - 46.9 °F 89% 30.09 in 10.0 mi SSE 4.6 mph - 0.00 in   Overcast
8:56 PM 50.0 °F - 46.9 °F 89% 30.10 in 10.0 mi South 3.5 mph - N/A   Clear
9:56 PM 48.9 °F - 46.0 °F 90% 30.10 in 10.0 mi SSE 3.5 mph - N/A   Mostly Cloudy
10:56 PM 48.0 °F - 45.0 °F 89% 30.11 in 8.0 mi Calm Calm - N/A   Clear
11:05 PM 46.4 °F - 44.6 °F 93% 30.10 in 0.8 mi Calm Calm - 0.01 in   Mist
11:18 PM 46.4 °F - 44.6 °F 93% 30.10 in 1.2 mi Calm Calm - 0.01 in   Partly Cloudy
11:23 PM 46.4 °F - 44.6 °F 93% 30.10 in 0.8 mi Calm Calm - 0.01 in   Partly Cloudy
11:36 PM 46.4 °F - 44.6 °F 93% 30.10 in 1.8 mi Calm Calm - 0.01 in   Mostly Cloudy
11:38 PM 46.4 °F - 44.6 °F 93% 30.10 in 3.0 mi Calm Calm - 0.01 in   Mostly Cloudy
11:56 PM 46.9 °F - 45.0 °F 93% 30.11 in 8.0 mi WSW 3.5 mph - 0.01 in   Scattered Clouds